Location: Newark
(31.5350°N, 35.0986°E)
Time: 12:10:23
(UTC+00:00)

Explorer 7 - Pass Details

Date: 21 October 2019
Orbit: 485 x 680 km, 50.3° (Epoch: 17 November)

Event Time Altitude Azimuth Distance (km) Brightness Sun altitude
Rises 06:45:40 0° 202° (SSW) 2,611 10.5 33.3°
Reaches altitude 10° 06:48:06 10° 190° (S) 1,703 9.8 33.7°
Maximum altitude 06:51:24 27° 131° (SE) 960 10.9 34.2°
Drops below altitude 10° 06:54:37 10° 71° (ENE) 1,667 9.7 34.7°
Sets 06:56:59 0° 59° (ENE) 2,544 10.4 35.0°
